This demonstration page uses our WeatherBlox Daily Observations layout. Learn more.

Left ArrowRight Arrow

31.31129, -92.44514

Hourly Observations for August 9, 2022

Temp ( °F °C ) Dew Point ( °F °C ) Humidity (%) Winds ( mph kmh ) Pressure ( in mb ) Visibility ( mi km ) Precip ( " mm )
12:53 am 00:53 Clear 78 25.6 73 22.8 85 85 S 6 9 30.04 1017 10 16 0.00 0.00
1:53 am 01:53 Clear 76 24.4 73 22.8 91 91 S 6 9 30.01 1016 10 16 0.00 0.00
2:53 am 02:53 Clear 76 24.4 72 22.2 88 88 SE 6 9 30.02 1017 10 16 0.00 0.00
3:53 am 03:53 Clear 77 25 73 22.8 88 88 Calm 30.03 1017 10 16 0.00 0.00
4:53 am 04:53 Clear 76 24.4 72 22.2 88 88 ESE 5 7 30.03 1017 10 16 0.00 0.00
5:53 am 05:53 Clear 75 23.9 72 22.2 90 90 Calm 30.05 1018 10 16 0.00 0.00
6:46 am 06:46 Mostly Cloudy 75 23.9 72 22.2 90 90 Calm 30.07 1018 9 14 0.00 0.00
6:53 am 06:53 Cloudy 76 24.4 72 22.2 88 88 SSE 3 6 30.08 1019 9 14 0.00 0.00
7:23 am 07:23 Mostly Cloudy 77 25 73 22.8 88 88 SE 6 9 30.08 1019 10 16 0.00 0.00
7:53 am 07:53 Mostly Sunny 78 25.6 73 22.8 85 85 SSE 7 11 30.09 1019 10 16 0.00 0.00
8:53 am 08:53 Sunny 83 28.3 75 23.9 77 77 SSW 3 6 30.10 1019 10 16 0.00 0.00
9:53 am 09:53 Sunny 86 30 75 23.9 70 70 Calm 30.10 1019 10 16 0.00 0.00
10:53 am 10:53 Mostly Sunny 88 31.1 73 22.8 61 61 Calm 30.10 1019 10 16 0.00 0.00
11:53 am 11:53 Partly Cloudy 86 30 71 21.7 61 61 SSE 7 11 30.09 1019 10 16 0.00 0.00
12:23 pm 12:23 Cloudy with Nearby Thunderstorms 82 27.8 73 22.8 74 74 NW 5 7 30.08 1018 4 6 0.01 0.25
12:38 pm 12:38 Mostly Cloudy with Light Rain 84 28.9 75 23.9 74 74 Calm 30.07 1018 10 16 0.01 0.25
12:53 pm 12:53 Partly Cloudy 89 31.7 73 22.8 59 59 Calm 30.07 1018 10 16 0.01 0.25
1:53 pm 13:53 Sunny 93 33.9 69 20.6 46 46 Calm 30.05 1018 10 16 0.00 0.00
2:53 pm 14:53 Sunny 95 35 69 20.6 43 43 VRB 3 6 30.01 1016 10 16 0.00 0.00
3:53 pm 15:53 Sunny with Nearby Thunderstorms 94 34.4 68 20 43 43 VRB 3 6 29.99 1016 10 16 0.00 0.00
4:07 pm 16:07 Mostly Sunny 93 33.9 70 21.1 47 47 S 8 13 29.97 1015 10 16 0.00 0.00
4:53 pm 16:53 Sunny 88 31.1 72 22.2 59 59 SSW 8 13 29.98 1015 10 16 0.00 0.00
5:53 pm 17:53 Cloudy with Light Rain 90 32.2 73 22.8 58 58 SSE 5 7 29.99 1016 10 16 0.01 0.13
6:01 pm 18:01 Cloudy with Nearby Thunderstorms 89 31.7 73 22.8 59 59 SSE 7 11 29.97 1015 10 16 0.01 0.13
6:53 pm 18:53 Cloudy with Thunderstorms 82 27.8 72 22.2 72 72 NW 15 24 30.03 1017 10 16 0.01 0.13
6:58 pm 18:58 Cloudy with Nearby Thunderstorms 81 27.2 71 21.7 72 72 NNW 14 22 30.04 1017 10 16 0.00 0.00
7:07 pm 19:07 Cloudy with Thunderstorms 78 25.6 72 22.2 82 82 NNW 12 19 30.05 1017 10 16 0.01 0.13
7:25 pm 19:25 Cloudy with Thunderstorms 78 25.6 72 22.2 82 82 NNW 9 15 30.05 1017 8 13 0.01 0.25
7:29 pm 19:29 Cloudy with Strong Thunderstorms 77 25 73 22.8 88 88 NW 8 13 30.06 1018 3 4 0.08 2.03
7:39 pm 19:39 Cloudy with Thunderstorms 76 24.4 73 22.8 91 91 NNE 6 9 30.05 1018 3 5 0.11 2.79
7:53 pm 19:53 Mostly Cloudy with Thunderstorms 77 25 74 23.3 90 90 Calm 30.04 1017 9 14 0.11 2.79
8:13 pm 20:13 Mostly Clear with Nearby Thunderstorms 77 25 73 22.8 88 88 Calm 30.04 1017 10 16 0.01 0.13
8:25 pm 20:25 Mostly Clear with Nearby Thunderstorms 77 25 74 23.3 90 90 SE 9 15 30.04 1017 10 16 0.01 0.25
8:37 pm 20:37 Mostly Clear with Light Rain 77 25 73 22.8 88 88 SE 10 17 30.04 1017 10 16 0.01 0.25
8:53 pm 20:53 Mostly Clear with Light Rain 77 25 73 22.8 88 88 SE 10 17 30.05 1018 10 16 0.01 0.25
9:53 pm 21:53 Clear with Light Rain 76 24.4 73 22.8 91 91 SSW 6 9 30.05 1018 10 16 0.03 0.76
10:53 pm 22:53 Clear 76 24.4 72 22.2 88 88 Calm 30.04 1017 10 16 0.01 0.13
11:53 pm 23:53 Clear 76 24.4 72 22.2 88 88 ESE 6 9 30.04 1017 10 16 0.00 0.00

Powered by AerisWeather